Change the Weather History Date:

Thursday, December 12, 2013

  Actual Average Record
Temperature  
Mean Temperature 16 °F 27 °F  
Max Temperature 30 °F 35 °F 64 °F (1968)
Min Temperature 2 °F 19 °F -11 °F (1961)
Degree Days  
Heating Degree Days 49 38  
Month to date heating degree days 533 436  
Since 1 July heating degree days 1736 1694  
Cooling Degree Days 0 0  
Month to date cooling degree days 0 0  
Year to date cooling degree days 1353 1066  
Moisture  
Dew Point 8 °F    
Average Humidity 66    
Maximum Humidity 75    
Minimum Humidity 56    
Precipitation  
Precipitation 0.00 in 0.04 in 0.59 in (1991)
Month to date precipitation 0.21 0.63  
Year to date precipitation 31.39 35.23  
Snow  
Snow 0.00 in 0.30 in 6.30 in (1972)
Month to date snowfall 5.6 3.5  
Since 1 July snowfall 7.0 6.4  
Snow Depth 3.00 in    
Sea Level Pressure  
Sea Level Pressure 30.35 in    
Wind  
Wind Speed 8 mph (SW)    
Max Wind Speed 15 mph    
Max Gust Speed 18 mph    
Visibility 10 miles    
Events      
T = Trace of Precipitation, MM = Missing Value Source: NWS Daily Summary

Daily Weather History Graph

Daily Weather History Graph

Search for Another Location

Airport or City:

Trip Planner

Search our weather history database for the weather conditions in past years. The results will help you decide how hot, cold, wet, or windy it might be!

Date:

Astronomy

Dec. 12, 2013 Rise Set
Actual Time 7:32 AM CST 4:44 PM CST
Civil Twilight 7:00 AM CST 5:16 PM CST
Nautical Twilight 6:25 AM CST 5:51 PM CST
Astronomical Twilight 5:52 AM CST 6:24 PM CST
Moon 1:54 PM CST (12/12) 2:52 AM CST (12/12)
Length of Visible Light 10h 15m
Length of Day
9h 12m
Waxing Gibbous, 80% of the Moon is Illuminated
Dec 12
Waxing Gibbous
Dec 17
Full
Dec 25
Last Quarter
Jan 1
New
Jan 7
First Quarter

Hourly Weather History & Observations

Time (CST) Temp. Windchill Dew Point Humidity Pressure Visibility Wind Dir Wind Speed Gust Speed Precip Events Conditions
12:54 AM 3.0 °F -9.3 °F -6.0 °F 66% 30.53 in 10.0 mi SSW 6.9 mph - N/A   Clear
1:54 AM 7.0 °F -8.3 °F -4.0 °F 61% 30.51 in 10.0 mi SSW 11.5 mph - N/A   Clear
2:54 AM 6.1 °F -6.8 °F -4.0 °F 63% 30.48 in 10.0 mi SSW 8.1 mph - N/A   Clear
3:54 AM 10.0 °F -3.7 °F -2.9 °F 56% 30.45 in 10.0 mi SW 10.4 mph - N/A   Clear
4:54 AM 12.0 °F -1.3 °F -0.9 °F 56% 30.43 in 10.0 mi SW 10.4 mph - N/A   Clear
5:54 AM 12.9 °F 0.7 °F -0.0 °F 56% 30.42 in 10.0 mi SW 9.2 mph - N/A   Clear
6:54 AM 12.0 °F -2.0 °F -0.0 °F 59% 30.43 in 10.0 mi WSW 11.5 mph - N/A   Partly Cloudy
7:54 AM 10.9 °F -2.6 °F -0.0 °F 61% 30.42 in 10.0 mi SW 10.4 mph - N/A   Partly Cloudy
8:54 AM 12.9 °F 1.6 °F 1.9 °F 62% 30.43 in 10.0 mi WSW 8.1 mph - N/A   Partly Cloudy
9:54 AM 19.0 °F 7.5 °F 7.0 °F 59% 30.43 in 10.0 mi West 10.4 mph - N/A   Mostly Cloudy
10:54 AM 21.9 °F 11.0 °F 10.0 °F 60% 30.42 in 10.0 mi West 10.4 mph - N/A   Mostly Cloudy
11:54 AM 24.1 °F 14.4 °F 12.0 °F 60% 30.38 in 10.0 mi WSW 9.2 mph - N/A   Mostly Cloudy
12:54 PM 26.1 °F 17.6 °F 14.0 °F 60% 30.36 in 10.0 mi WSW 8.1 mph - N/A   Partly Cloudy
1:54 PM 27.0 °F 19.5 °F 14.0 °F 58% 30.34 in 10.0 mi WSW 6.9 mph - N/A   Mostly Cloudy
2:54 PM 28.9 °F 21.9 °F 15.1 °F 56% 30.32 in 10.0 mi SW 6.9 mph - N/A   Mostly Cloudy
3:54 PM 30.0 °F 22.4 °F 17.1 °F 59% 30.30 in 10.0 mi SW 8.1 mph - N/A   Mostly Cloudy
4:54 PM 28.0 °F 22.8 °F 16.0 °F 61% 30.28 in 10.0 mi SSW 4.6 mph - N/A   Mostly Cloudy
5:54 PM 26.1 °F 19.4 °F 15.1 °F 63% 30.26 in 10.0 mi SW 5.8 mph - N/A   Mostly Cloudy
6:54 PM 24.1 °F 18.2 °F 15.1 °F 69% 30.26 in 10.0 mi South 4.6 mph - N/A   Mostly Cloudy
7:54 PM 21.0 °F 13.4 °F 12.9 °F 71% 30.25 in 10.0 mi South 5.8 mph - N/A   Mostly Cloudy
8:54 PM 21.0 °F 12.4 °F 12.9 °F 71% 30.23 in 10.0 mi South 6.9 mph - N/A   Scattered Clouds
9:54 PM 19.9 °F 11.1 °F 12.9 °F 74% 30.20 in 10.0 mi South 6.9 mph - N/A   Partly Cloudy
10:54 PM 21.0 °F 13.4 °F 12.9 °F 71% 30.19 in 10.0 mi South 5.8 mph - N/A   Clear
11:54 PM 19.9 °F 13.4 °F 14.0 °F 78% 30.16 in 10.0 mi SSE 4.6 mph - N/A   Clear